Preview of NWS' New Version of Forecast
This preview is not operational and should not be used for support decisions.

Regional Weather Roundup (RWR)

Issued by National Weather Service (NWS)

                            
000
ASUS43 KDTX 181010
RWRMI 
MICHIGAN HOURLY REGIONAL WEATHER ROUNDUP
NATIONAL WEATHER SERVICE DETROIT/PONTIAC MI
600 AM EDT TUE JUN 18 2019

NOTE: "FAIR" INDICATES FEW OR NO CLOUDS BELOW 12,000 FEET WITH NO
SIGNIFICANT WEATHER AND/OR OBSTRUCTION TO VISIBILITY.

MIZ047>049-052>055-059>063-066>070-074>076-081>083-181100-
SOUTHEAST LOWER MICHIGAN
  
CITY           SKY/WX    TMP DP  RH WIND       PRES   REMARKS
ADRIAN         FAIR      57  56  96 CALM      29.97S                  
ALMA           FOG       53  51  95 CALM      29.98S VSB<1/4          
ANN ARBOR      FOG       55  55 100 CALM      29.97R VSB<1/4          
BAD AXE        FAIR      46  45  97 CALM      29.97S                  
CARO           MOCLDY    56  55  96 CALM      29.97S                  
DETROIT CITY   FAIR      58  52  80 CALM      29.96S                  
DETROIT        CLOUDY    59  51  75 CALM      29.97R                  
FLINT          CLOUDY    62  57  83 CALM      29.97S                  
GROSSE ILE     FAIR      57  52  84 CALM      29.96R                  
HILLSDALE      FOG       53  53  97 CALM      29.97S VSB 1/4          
HOWELL         CLOUDY    61  58  90 CALM      29.97S                  

CITY           SKY/WX    TMP DP  RH WIND       PRES   REMARKS
JACKSON        FOG       56  56 100 CALM      29.97S VSB 1/4          
LAMBERTVILLE   FAIR      58  58  99 CALM      29.97R                  
LANSING        CLOUDY    62  60  93 CALM      29.97F                  
LAPEER         CLOUDY    57  57  97 CALM      29.98S                  
MASON          MOCLDY    61  59  95 CALM      29.97S FOG              
MONROE         FAIR      59  58  97 CALM      29.96R                  
MT. CLEMENS    FAIR      56  56 100 CALM      29.95F                  
PONTIAC        CLOUDY    61  58  90 CALM      29.96S                  
PORT HOPE        N/A     47  46  97 CALM      29.96S                  
PORT HURON     CLOUDY    57  52  82 CALM      29.97S                  
TRI CITIES     FAIR      55  55 100 CALM      29.98S                  
MIDLAND        FAIR      48  48 100 CALM      29.98R                  
TROY           FAIR      58  51  75 CALM      29.99R                  
SAGINAW HB     FAIR      57  55  94 CALM      29.97S FOG              
$$
MIZ043>046-050>051-056>058-064>065-071>073-077>080-181100-
SOUTHWEST LOWER MICHIGAN
  
CITY           SKY/WX    TMP DP  RH WIND       PRES   REMARKS
BATTLE CREEK   FAIR      59  59 100 CALM      29.97F                  
BENTON HARBOR  CLOUDY    59  56  89 CALM      29.97S                  
BIG RAPIDS     FAIR      51  50  96 CALM      29.98S                  
COLDWATER      FOG       58  58 100 CALM      29.98R VSB<1/4          
FREMONT        CLOUDY    56  55  94 CALM      29.97F                  
HOLLAND        MOCLDY    59  56  89 CALM      29.98R                  
GRAND RAPIDS   MOCLDY    58  56  93 CALM      29.98S                  
IONIA          CLOUDY    59  58  95 CALM      29.97S                  
KALAMAZOO      MOCLDY    59  58  96 N6        29.98R FOG              
LUDINGTON      CLOUDY    51  50  97 CALM      29.97S                  
MARSHALL       CLOUDY    59  59 100 CALM      29.97S FOG              
MOUNT PLEASANT FOG       51  51  99 CALM      29.98R VSB 1            
MUSKEGON       CLOUDY    62  55  77 CALM      29.98R                  
SOUTH HAVEN    CLOUDY    58  57  96 CALM      29.97S                  
$$
MIZ016>042-181100-
NORTHERN LOWER MICHIGAN
  
CITY           SKY/WX    TMP DP  RH WIND       PRES   REMARKS
ALPENA         FAIR      48  46  93 SE3       29.98S                  
BEAVER ISLAND  CLOUDY    53  49  87 CALM      29.97F                  
BELLAIRE       MOCLDY    53  51  94 CALM      29.98R                  
CADILLAC       FAIR      51  49  95 CALM      29.97S                  
CHARLEVOIX     MOCLDY    54  51  87 CALM      30.00S                  
FRANKFORT      CLOUDY    55  50  82 CALM      29.97S                  
GAYLORD        FAIR      54  50  86 CALM      29.98S                  
HARBOR SPRINGS CLOUDY    55  53  96 CALM      29.96F                  
HOUGHTON LAKE  FAIR      51  48  89 CALM      29.98S                  
MANISTEE       FAIR      51  51 100 E3        29.97S                  
OSCODA         FAIR      42  42 100 CALM      29.98S                  
PELLSTON       FAIR      52  50  93 CALM      29.97S                  
ROGERS CITY    FAIR      51  47  87 SW3       29.98S                  
TRAVERSE CITY  FAIR      56  51  84 CALM      29.96S                  
$$
MIZ007>008-015-181100-
EASTERN UPPER MICHIGAN
  
CITY           SKY/WX    TMP DP  RH WIND       PRES   REMARKS
KINROSS        MOCLDY    53  48  83 NE5       29.98R                  
MACKINAC ISLAN FAIR      53  52  97 CALM      29.97R                  
NEWBERRY       CLOUDY    55  52  91 CALM      29.96S                  
S. S. MARIE    FAIR      54  50  86 E3        29.97S                  
MUNISING         N/A     56  51  84 S8        29.94S                  
$$
MIZ004>006-011>014-085-181100-
CENTRAL UPPER MICHIGAN
  
CITY           SKY/WX    TMP DP  RH WIND       PRES   REMARKS
ESCANABA       FAIR      55  54  96 CALM      29.95F                  
MENOMINEE      LGT RAIN  58  55  90 SE3       29.96F                  
SAWYER-GWINN   FAIR      55  51  89 S8        29.94S                  
$$
MIZ001>003-009>011-084-181100-
WESTERN UPPER MICHIGAN
  
CITY           SKY/WX    TMP DP  RH WIND       PRES   REMARKS
IRON MOUNTAIN  MOCLDY    56  54  93 CALM      29.94S                  
HOUGHTON       CLOUDY    48  44  86 NE3       29.93F                  
COPPER HARBOR    N/A     45  43  93 CALM      29.93F                  
IRONWOOD       CLOUDY    46  46 100 CALM      29.96S                  
$$

ABBREVIATIONS USED IN REMARKS
   TC - TEMPERATURE IN CELSIUS
  WCI - WIND CHILL INDEX
   HX - HEAT INDEX
  VSB - VISIBILITY